Snowfall_Accumulation
0.0 0.0 0.0 0.0 0.0 0.0 0.0 0.0 0.2 0.0 0.0 0.0 0.0 0.0 0.0 0.0 0.0 0.0 0.0 0.0 0.0 0.0 0.0 0.0 0.0 0.0 0.0 0.0 0.0 0.0 0.0 0.0 0.0 0.0 0.0 0.0 0.0 0.0 0.0 0.0 0.0 0.0 0.0 0.0
0.0 0.0 0.0 0.0 0.0 0.0 0.0 0.0 0.0 0.0 0.0 0.0 0.0 0.0 0.0 0.0 0.0 0.0 0.0 0.0 0.0 0.0 0.0 0.0 0.0 0.0 0.0 0.0 0.0 0.0 0.0 0.0 0.0 0.0 0.0 0.0 0.0 0.0 0.0 0.0 0.0 0.0 0.0 0.0
0.6 0.0 0.0 0.2 0.0 0.0 0.0 0.0 0.0 0.0 0.0 0.0 0.0 0.0 0.0 0.0 0.0 0.0 0.0 0.0 0.0 0.0 0.0 0.0 0.0 0.0 0.0 0.0 0.0 0.0 0.0 0.0 0.0 0.0 0.0 0.0 0.0 0.0 0.0 0.0 0.0 0.0 0.0 0.0
1.1 0.2 1.4 0.0 0.0 0.0 0.0 0.0 0.0 0.0 0.0 0.0 0.0 0.0 0.0 0.0 0.0 0.0 0.1 0.3 0.1 0.1 0.1 0.0 0.0 0.0 0.0 0.0 0.0 0.0 0.0 0.0 0.0 0.0 0.0 0.0 0.0 0.0 0.0 0.0 0.0 0.0 0.0 0.0
1.7 0.6 0.0 0.0 0.0 0.0 0.1 0.2 0.0 0.0 0.0 0.0 0.0 0.0 0.1 0.1 0.1 0.4 0.7 0.4 1.0 0.4 0.4 0.3 0.1 0.2 0.0 0.0 0.0 0.0 0.0 0.0 0.0 0.0 0.0 0.0 0.0 0.0 0.0 0.0 0.0 0.0 0.0 0.0
0.4 0.4 1.4 0.0 0.0 0.0 0.0 3.6 0.0 0.0 0.0 0.0 0.0 0.3 1.9 0.5 0.4 0.7 1.8 1.5 1.2 1.1 0.7 0.7 0.2 0.1 1.1 0.3 0.1 0.1 0.0 0.0 0.0 0.0 0.0 0.0 0.0 0.0 0.0 0.0 0.0 0.0 0.0 0.0
0.7 0.8 0.2 0.0 0.0 0.0 3.6 0.8 0.2 0.2 0.4 1.0 1.6 1.3 1.7 1.1 1.2 1.3 2.2 3.6 2.3 2.4 1.6 1.3 0.6 0.5 1.1 1.5 1.3 0.5 0.2 0.2 0.1 0.0 0.0 0.0 0.0 0.0 0.1 0.1 0.1 0.1 0.1 0.2
0.6 0.8 0.5 0.0 0.0 0.9 0.9 0.4 0.6 0.7 2.1 3.9 4.1 4.8 4.6 3.9 3.0 2.1 2.1 2.8 5.0 4.4 3.7 2.3 1.6 1.1 1.2 1.1 1.1 1.0 0.6 0.4 0.3 0.2 0.1 0.0 0.0 0.2 0.1 0.1 0.1 0.1 0.1 0.3
0.3 0.7 0.2 0.1 0.2 0.2 0.2 0.7 0.9 0.8 1.0 2.9 4.6 5.1 4.2 2.0 1.1 1.4 2.0 2.1 1.8 4.4 4.9 3.4 2.2 1.8 2.0 1.8 1.2 1.1 1.1 1.2 0.8 0.4 0.4 0.2 0.0 0.0 0.0 0.0 0.1 0.0 0.4 1.0
0.7 0.6 0.3 0.1 0.1 0.2 0.3 1.6 1.1 1.0 1.4 1.7 2.5 2.9 3.1 1.9 1.2 0.8 0.7 0.7 0.5 0.8 2.5 4.0 4.3 2.2 1.5 1.3 1.2 1.3 0.9 0.8 1.0 0.7 0.4 0.2 0.1 0.0 0.0 0.2 0.3 0.4 0.9 1.4
0.9 1.3 0.2 0.6 1.2 0.9 1.1 1.3 1.2 1.5 1.4 1.6 1.3 1.7 1.8 2.0 2.0 1.8 1.6 1.4 1.0 0.8 0.6 1.0 0.8 1.5 1.8 1.4 1.2 1.0 0.6 0.7 0.6 0.2 0.2 0.3 0.6 0.5 0.6 0.7 0.5 1.2 2.1 2.5
4.6 1.2 1.0 2.0 1.3 0.8 1.2 1.3 0.6 0.3 0.4 0.3 0.3 0.4 0.4 0.5 0.6 0.4 0.4 0.3 0.2 0.2 0.2 0.3 0.4 0.5 0.4 0.4 0.5 0.8 0.9 0.6 0.9 0.9 1.1 1.0 0.9 1.2 nan nan nan nan nan 3.0
2.1 1.4 1.2 1.5 1.2 0.8 0.8 1.1 0.7 0.4 0.3 0.2 0.0 0.0 0.0 0.0 0.0 nan 0.0 0.0 0.0 0.1 0.1 0.1 0.1 0.1 0.1 0.1 0.1 0.2 0.5 0.5 1.2 1.2 1.5 1.6 1.4 1.4 2.2 4.2 nan nan nan nan
0.6 0.3 0.8 1.0 1.5 0.6 0.4 0.3 0.2 0.0 0.0 0.0 0.0 0.0 0.0 0.0 0.0 0.0 0.2 0.2 0.1 0.1 0.2 0.3 0.4 1.4 1.4 1.1 0.9 1.4 1.6 1.2 2.7 3.0 3.3 4.5 4.9 5.6 5.7 6.7 8.5 8.5 nan nan
0.6 0.2 0.3 0.1 0.0 0.0 0.0 0.0 0.0 0.1 0.1 0.2 0.2 0.2 0.2 0.5 0.8 1.3 1.0 0.4 0.3 0.4 0.6 0.6 0.7 1.6 1.0 0.7 0.9 1.6 2.1 3.2 4.2 5.5 6.5 6.9 6.8 6.7 6.4 7.5 8.2 8.1 6.8 3.8
0.1 0.0 0.0 0.0 0.0 0.0 0.0 0.0 0.0 0.1 0.1 0.1 0.2 0.3 0.5 0.7 0.9 0.7 0.9 1.0 1.4 2.4 1.8 4.6 1.5 2.8 1.4 0.8 0.8 2.8 5.6 3.8 5.8 7.5 7.6 8.2 7.8 6.8 6.0 6.2 6.7 6.8 6.5 6.8
0.0 0.0 0.0 0.0 0.0 0.0 0.1 0.1 0.1 0.1 0.2 0.3 0.5 0.4 0.4 0.7 0.8 1.3 1.8 1.4 2.7 3.5 2.8 3.3 6.9 6.4 6.6 5.8 3.9 3.9 5.1 5.2 1.6 4.8 4.5 4.3 4.6 5.2 4.1 5.0 5.4 4.7 7.5 10.8
0.0 0.1 0.1 0.1 0.1 0.1 0.2 0.2 0.3 0.3 0.7 0.8 2.3 4.1 5.8 5.4 3.5 3.6 3.9 3.8 5.8 8.0 7.8 7.8 7.0 6.3 6.6 5.5 3.3 2.6 3.2 3.1 3.0 3.5 3.1 4.7 3.5 2.9 4.1 4.0 3.9 4.9 5.9 14.8
0.1 0.1 0.1 0.1 0.2 0.2 0.2 0.5 1.0 1.5 4.2 4.6 6.3 7.0 7.4 8.9 8.4 10.4 10.9 13.7 15.2 9.4 12.0 7.3 1.8 2.7 3.1 2.9 1.2 2.4 2.9 4.5 2.7 2.3 2.5 5.7 6.3 3.3 5.9 7.1 6.4 8.6 6.0 5.9
0.2 0.2 0.2 0.3 0.3 1.7 2.2 4.4 4.3 4.2 5.3 4.7 9.4 11.3 9.9 13.7 13.8 13.9 9.4 9.2 8.3 8.5 4.3 3.5 2.4 1.9 1.9 0.9 1.7 1.2 3.1 4.4 3.0 5.4 7.4 4.6 10.6 15.1 9.8 7.3 6.8 9.7 15.7 12.0
3.3 3.7 3.9 4.9 8.6 8.1 9.0 9.7 8.3 8.6 8.9 11.0 11.7 14.5 13.5 10.2 9.3 10.7 7.2 3.7 5.6 3.5 1.9 0.8 1.4 1.7 0.8 0.6 0.7 6.4 6.5 9.5 9.6 6.7 9.8 12.5 16.8 13.0 14.3 15.5 13.9 16.4 19.4 15.0
5.1 5.3 7.8 7.0 7.1 6.3 8.3 7.3 5.4 7.5 8.0 10.7 14.9 16.8 12.5 6.8 7.6 6.6 7.7 3.7 3.5 2.3 2.2 2.4 1.7 3.2 2.7 5.1 2.2 8.5 6.5 5.0 6.2 6.2 7.0 11.3 13.6 20.4 20.7 18.1 17.4 19.6 19.2 19.4
6.2 5.6 5.9 6.5 6.1 6.1 4.8 5.5 8.7 7.3 11.3 10.0 10.8 7.1 5.2 3.5 2.9 4.2 4.6 1.2 1.8 3.8 1.5 4.0 4.7 5.3 5.7 9.9 9.1 10.8 11.1 11.5 11.5 10.7 11.2 17.5 17.3 27.8 17.0 16.5 18.2 18.1 23.6 16.2
5.5 4.9 5.1 5.9 4.8 2.6 2.5 4.2 2.0 2.4 7.7 3.1 4.6 7.3 2.2 5.9 8.4 1.5 2.1 5.6 5.7 16.7 10.0 10.2 8.6 5.9 6.5 12.3 13.0 15.9 14.6 16.1 17.2 19.1 9.9 9.1 24.7 21.0 17.9 26.0 16.6 19.1 21.1 18.0
3.9 3.5 3.5 3.3 2.0 2.3 0.9 0.7 0.6 0.6 0.5 0.6 0.4 0.4 0.5 1.3 7.5 4.4 6.4 5.8 6.3 5.4 8.4 7.9 6.5 7.1 16.3 17.7 18.5 18.5 18.7 16.5 19.3 21.5 15.5 22.1 20.5 28.5 26.3 21.6 25.1 25.5 26.4 23.1
1.2 1.8 1.6 0.7 1.0 1.0 1.0 0.8 2.3 2.0 1.9 6.1 3.9 12.3 9.1 4.3 3.9 4.3 5.8 6.5 4.9 6.1 6.3 15.9 20.1 19.6 18.5 12.8 16.5 17.2 13.5 11.0 14.6 15.8 17.8 17.7 17.1 14.7 18.3 16.8 22.6 27.6 33.9 36.7
1.1 0.4 1.1 1.0 1.3 1.6 1.8 1.5 4.3 5.7 7.7 11.3 9.7 9.0 5.5 9.7 12.1 7.4 7.7 11.4 12.4 12.4 15.7 19.1 16.6 11.3 10.1 16.0 14.5 12.8 12.0 13.2 11.0 10.0 21.2 24.4 23.4 31.1 27.8 27.4 31.3 32.7 30.1 26.5
Water_Equivalent
0.00 0.00 0.00 0.00 0.00 0.00 0.01 0.00 0.03 0.00 0.00 0.00 0.00 0.00 0.00 0.00 0.00 0.00 0.00 0.00 0.00 0.00 0.00 0.00 0.00 0.00 0.00 0.00 0.00 0.00 0.00 0.00 0.00 0.00 0.00 0.00 0.00 0.00 0.00 0.00 0.00 0.00 0.00 0.00
0.00 0.00 0.00 0.00 0.00 0.00 0.00 0.00 0.00 0.00 0.00 0.00 0.00 0.00 0.00 0.00 0.00 0.00 0.00 0.00 0.00 0.00 0.00 0.00 0.00 0.00 0.00 0.00 0.00 0.00 0.00 0.00 0.00 0.00 0.00 0.00 0.00 0.00 0.00 0.00 0.00 0.00 0.00 0.00
0.11 0.00 0.00 0.05 0.00 0.00 0.00 0.00 0.00 0.00 0.00 0.00 0.00 0.00 0.00 0.00 0.00 0.00 0.00 0.00 0.00 0.00 0.00 0.00 0.00 0.00 0.00 0.00 0.00 0.00 0.00 0.00 0.00 0.00 0.00 0.00 0.00 0.00 0.00 0.00 0.00 0.00 0.00 0.00
0.25 0.04 0.26 0.01 0.00 0.00 0.00 0.00 0.00 0.00 0.00 0.00 0.00 0.00 0.00 0.00 0.00 0.00 0.01 0.05 0.03 0.02 0.01 0.00 0.00 0.00 0.00 0.00 0.00 0.00 0.00 0.00 0.00 0.00 0.00 0.00 0.00 0.00 0.00 0.00 0.00 0.00 0.00 0.00
0.38 0.14 0.01 0.00 0.00 0.00 0.02 0.05 0.00 0.00 0.00 0.00 0.00 0.00 0.03 0.02 0.03 0.08 0.15 0.09 0.26 0.09 0.08 0.07 0.01 0.04 0.00 0.00 0.00 0.00 0.00 0.00 0.00 0.00 0.00 0.00 0.00 0.00 0.00 0.00 0.00 0.00 0.00 0.00
0.11 0.07 0.27 0.00 0.00 0.00 0.00 0.74 0.00 0.00 0.00 0.00 0.00 0.07 0.44 0.13 0.09 0.13 0.42 0.40 0.28 0.32 0.18 0.18 0.03 0.02 0.22 0.07 0.02 0.01 0.01 0.00 0.00 0.00 0.00 0.00 0.00 0.00 0.00 0.00 0.00 0.00 0.00 0.01
0.19 0.20 0.06 0.00 0.00 0.00 0.67 0.15 0.04 0.03 0.08 0.25 0.31 0.21 0.34 0.24 0.24 0.23 0.41 0.93 0.57 0.65 0.40 0.33 0.17 0.09 0.20 0.29 0.31 0.12 0.08 0.04 0.01 0.00 0.00 0.01 0.01 0.01 0.01 0.02 0.01 0.02 0.02 0.03
0.15 0.18 0.12 0.00 0.00 0.20 0.19 0.07 0.12 0.14 0.50 0.99 0.89 0.93 0.83 0.66 0.46 0.33 0.33 0.49 1.16 0.70 0.69 0.51 0.46 0.37 0.44 0.31 0.31 0.26 0.16 0.08 0.09 0.06 0.02 0.00 0.01 0.06 0.02 0.03 0.04 0.01 0.03 0.09
0.06 0.14 0.03 0.01 0.03 0.03 0.04 0.12 0.16 0.15 0.19 0.51 0.76 0.75 0.62 0.29 0.17 0.21 0.31 0.32 0.27 0.76 0.79 0.48 0.38 0.46 0.46 0.48 0.41 0.32 0.26 0.25 0.16 0.14 0.13 0.06 0.00 0.01 0.01 0.00 0.05 0.01 0.10 0.23
0.12 0.12 0.05 0.03 0.02 0.04 0.06 0.26 0.19 0.17 0.24 0.28 0.35 0.40 0.41 0.26 0.16 0.11 0.09 0.09 0.07 0.11 0.32 0.56 0.67 0.34 0.29 0.25 0.23 0.32 0.23 0.16 0.18 0.13 0.08 0.03 0.01 0.00 0.01 0.06 0.10 0.13 0.21 0.28
0.18 0.35 0.04 0.11 0.24 0.16 0.18 0.22 0.19 0.24 0.22 0.23 0.19 0.21 0.23 0.23 0.22 0.21 0.19 0.18 0.13 0.10 0.08 0.12 0.11 0.23 0.27 0.23 0.21 0.15 0.10 0.13 0.10 0.04 0.03 0.05 0.09 0.09 0.12 0.13 0.11 0.25 0.37 0.47
0.78 0.26 0.18 0.34 0.22 0.14 0.18 0.18 0.09 0.05 0.06 0.04 0.04 0.05 0.05 0.06 0.08 0.05 0.05 0.05 0.03 0.03 0.03 0.04 0.06 0.06 0.06 0.06 0.08 0.12 0.12 0.10 0.17 0.18 0.21 0.16 0.16 0.17 nan nan nan nan nan 0.65
0.41 0.27 0.21 0.25 0.19 0.12 0.11 0.14 0.09 0.05 0.03 0.03 0.00 0.00 0.00 0.00 0.00 nan 0.00 0.00 0.01 0.01 0.01 0.02 0.01 0.02 0.02 0.02 0.01 0.05 0.09 0.09 0.24 0.25 0.29 0.31 0.29 0.28 0.35 0.63 nan nan nan nan
0.12 0.06 0.12 0.16 0.20 0.09 0.06 0.04 0.03 0.00 0.00 0.00 0.00 0.00 0.00 0.00 0.00 0.00 0.02 0.02 0.01 0.02 0.03 0.05 0.07 0.19 0.24 0.23 0.19 0.24 0.27 0.40 0.51 0.55 0.59 0.75 0.81 0.87 0.89 0.99 1.25 1.18 nan nan
0.10 0.03 0.05 0.01 0.00 0.00 0.00 0.00 0.01 0.02 0.03 0.03 0.04 0.05 0.05 0.09 0.12 0.16 0.14 0.06 0.05 0.07 0.09 0.09 0.10 0.20 0.17 0.13 0.16 0.26 0.39 0.57 0.74 1.00 1.16 1.17 1.14 1.07 0.97 1.10 1.13 1.06 0.91 0.70
0.01 0.00 0.00 0.00 0.00 0.00 0.00 0.00 0.00 0.01 0.02 0.02 0.03 0.04 0.07 0.10 0.11 0.09 0.11 0.12 0.19 0.29 0.19 0.72 0.19 0.32 0.20 0.14 0.15 0.51 0.93 1.07 1.10 1.20 1.16 1.21 1.16 1.00 0.87 0.90 0.93 0.91 0.85 0.85
0.00 0.00 0.00 0.00 0.00 0.00 0.02 0.01 0.01 0.02 0.03 0.04 0.07 0.06 0.05 0.09 0.10 0.13 0.18 0.15 0.36 0.48 0.35 0.40 0.79 0.83 0.90 0.83 0.60 0.64 0.78 0.82 0.52 0.79 0.70 0.66 0.72 0.83 0.63 0.74 0.76 0.65 1.03 1.61
0.00 0.02 0.02 0.02 0.02 0.02 0.03 0.04 0.04 0.05 0.08 0.10 0.33 0.64 0.86 0.78 0.40 0.40 0.43 0.45 0.73 0.95 0.86 0.87 0.79 0.71 0.76 0.65 0.40 0.39 0.51 0.49 0.49 0.59 0.51 0.78 0.57 0.49 0.66 0.64 0.62 0.71 0.86 2.60
0.01 0.02 0.02 0.02 0.03 0.03 0.04 0.07 0.12 0.22 0.63 0.66 0.96 0.93 0.97 1.17 0.96 1.12 1.18 1.70 1.86 0.92 1.15 0.76 0.59 0.41 0.32 0.34 0.25 0.38 0.49 0.88 0.49 0.36 0.42 1.78 1.10 0.56 0.87 1.10 0.95 1.34 0.87 0.84
0.04 0.03 0.03 0.05 0.05 0.25 0.27 0.65 0.66 0.55 0.65 0.60 1.30 1.55 1.15 1.66 1.71 1.78 1.13 0.97 0.80 0.88 0.44 0.35 0.25 0.19 0.19 0.15 0.52 0.21 0.62 0.93 0.60 1.01 1.35 0.74 1.67 2.34 1.50 2.25 1.04 1.48 2.53 1.88
0.45 0.56 0.58 0.72 1.19 1.19 1.35 1.41 1.20 1.16 1.09 1.45 1.61 1.93 1.74 1.23 1.23 1.54 0.93 0.47 0.49 0.36 0.21 0.21 0.17 0.22 0.12 0.10 0.16 1.26 1.25 1.82 1.77 1.14 1.73 2.19 2.87 2.03 2.25 2.59 2.33 2.79 3.18 2.42
0.65 0.68 1.03 0.91 0.95 0.76 1.07 0.92 0.67 0.97 1.00 1.44 2.07 2.36 1.74 0.77 0.99 0.87 1.11 0.47 0.40 0.76 0.36 0.37 0.24 1.02 0.76 1.66 0.41 1.66 1.20 0.95 1.14 1.14 1.27 2.07 2.28 3.24 3.23 2.84 2.70 3.16 3.17 3.27
0.77 0.69 0.72 0.80 0.73 0.65 0.57 0.67 1.17 1.02 1.53 1.37 1.56 1.00 0.71 0.48 0.43 0.65 0.66 0.13 0.28 1.08 0.26 0.69 1.47 1.75 1.87 2.03 1.87 2.09 2.06 2.07 2.06 1.87 1.95 2.92 2.74 4.24 2.32 2.29 2.64 2.67 3.70 2.47
0.65 0.57 0.59 0.72 0.59 0.29 0.28 0.44 0.22 0.29 1.10 0.45 0.74 1.22 0.35 0.99 1.54 0.27 0.37 1.84 1.85 3.83 2.06 2.11 2.13 1.96 2.16 2.52 2.43 2.72 2.48 2.70 2.69 2.91 1.44 2.77 3.79 2.88 2.27 3.31 1.98 2.68 2.92 2.53
0.44 0.40 0.41 0.39 0.23 0.33 0.13 0.10 0.10 0.09 0.08 0.10 0.06 0.06 0.09 0.26 1.33 0.72 1.22 1.15 2.00 1.25 1.60 2.28 2.13 2.34 3.10 3.19 2.92 2.83 2.83 2.42 2.74 3.13 2.16 3.27 3.01 4.27 3.66 2.69 3.08 3.29 3.28 2.96
0.16 0.26 0.23 0.09 0.15 0.18 0.18 0.15 0.38 0.32 0.31 0.93 0.62 2.07 1.64 0.82 0.72 0.75 1.08 1.72 0.86 1.84 1.08 2.80 3.59 3.53 3.29 2.00 2.59 2.63 1.95 1.53 2.06 2.00 2.30 2.26 2.23 1.80 2.21 2.02 2.81 3.61 4.54 5.04
0.18 0.08 0.18 0.16 0.19 0.24 0.29 0.25 0.63 0.85 1.40 1.63 1.36 1.45 0.88 1.48 1.89 1.51 2.15 1.93 2.09 2.01 2.59 3.23 2.78 2.72 1.63 2.66 2.23 1.88 1.75 1.87 2.80 1.25 2.60 3.04 2.84 3.98 3.48 3.56 4.10 4.58 3.85 3.21
SL_Ratio
nan nan nan nan nan nan 3.9 10.0 4.7 nan nan nan nan nan nan nan nan nan nan nan nan nan nan nan nan nan nan nan nan nan nan nan nan nan nan nan nan nan nan nan nan nan nan nan
nan nan nan nan nan nan nan nan nan nan nan nan nan nan nan nan nan nan nan nan nan nan nan nan nan nan nan nan nan nan nan nan nan nan nan nan nan nan nan nan nan nan nan nan
5.0 nan 4.4 4.5 nan nan nan nan nan nan nan nan nan nan nan nan nan nan nan nan 0.0 nan 6.7 nan nan nan nan nan nan nan nan nan nan nan nan nan nan nan nan nan nan nan nan nan
4.6 4.5 5.3 4.5 nan nan nan nan nan nan nan nan nan nan nan 2.9 2.7 2.9 4.9 5.4 4.6 5.6 5.5 5.3 nan nan nan nan nan nan nan nan nan nan nan nan nan nan nan nan nan nan nan nan
4.3 4.7 5.0 nan nan 0.0 3.5 3.9 nan nan nan nan nan nan 3.4 4.0 3.1 4.7 4.5 4.3 3.8 4.8 5.5 4.6 4.9 5.8 6.0 nan nan nan nan nan nan nan nan nan nan nan nan nan nan nan nan nan
3.4 5.7 5.2 7.5 nan nan nan 4.9 nan nan nan 0.0 nan 4.3 4.4 3.9 4.5 5.2 4.4 3.7 4.2 3.5 4.0 3.6 5.0 5.2 5.0 4.3 3.4 4.6 5.0 nan nan nan nan nan nan nan nan 10.0 5.0 4.0 4.3 4.2
3.5 4.1 3.3 nan nan nan 5.4 5.0 5.0 5.1 4.5 4.2 5.3 5.9 5.0 4.7 5.1 5.7 5.3 3.8 3.9 3.7 4.0 3.9 3.5 5.4 5.4 5.1 4.3 4.3 3.1 4.2 3.8 5.0 5.7 2.9 3.5 3.5 4.5 5.0 4.7 5.1 5.2 5.4
4.1 4.3 4.3 nan nan 4.5 4.8 4.8 5.1 5.2 4.2 3.9 4.6 5.1 5.6 5.9 6.5 6.4 6.5 5.8 4.3 6.3 5.4 4.5 3.5 3.0 2.8 3.6 3.5 3.7 3.7 5.1 3.5 3.9 4.4 10.0 2.4 2.7 3.3 2.6 3.3 4.1 3.1 3.7
5.4 4.6 6.1 5.3 5.8 4.5 4.7 5.3 5.7 5.3 5.4 5.8 6.1 6.8 6.7 6.8 6.8 6.7 6.6 6.6 6.5 5.8 6.2 7.0 5.8 3.9 4.2 3.8 3.0 3.5 4.3 4.8 4.8 3.1 3.3 3.4 3.6 3.2 3.5 nan 2.8 3.0 3.6 4.3
5.6 4.8 6.1 5.8 4.9 4.9 5.3 5.9 5.8 5.8 5.9 6.1 7.1 7.3 7.6 7.5 7.5 7.5 7.3 7.3 6.9 7.0 7.9 7.1 6.4 6.7 5.3 5.2 5.0 4.1 4.0 4.7 5.5 5.8 5.4 6.4 6.1 5.0 4.7 3.2 3.2 3.5 4.3 4.9
5.2 3.8 5.7 5.0 5.0 5.4 5.9 5.8 6.2 6.4 6.4 6.8 7.1 7.9 7.8 8.8 8.8 8.5 8.2 7.8 7.4 7.9 8.0 8.2 7.4 6.7 6.6 6.3 5.9 6.4 6.5 5.5 5.9 4.7 6.0 5.6 6.2 5.7 4.6 5.9 4.6 4.8 5.6 5.3
5.9 4.7 5.6 5.8 5.9 5.7 6.5 7.0 6.7 7.0 7.3 7.1 7.2 7.6 7.5 8.4 8.1 7.6 7.9 7.4 7.3 7.3 7.5 7.5 7.5 7.3 7.0 6.7 6.4 6.7 7.2 5.7 5.1 4.7 5.1 6.3 5.8 6.9 nan nan nan nan nan 4.6
5.1 5.2 5.6 6.1 6.3 6.4 7.1 7.6 7.5 7.6 7.6 8.0 3.3 nan nan 7.5 7.1 nan nan 10.0 7.9 7.7 7.4 5.7 6.5 6.4 5.6 4.7 4.6 5.1 5.3 5.2 4.9 4.8 5.3 5.3 5.0 5.1 6.3 6.7 nan nan nan nan
5.3 5.1 6.3 6.6 7.5 7.0 7.2 7.4 7.5 nan nan nan nan nan nan nan nan 8.0 8.6 8.4 6.8 5.9 6.3 5.9 6.3 7.3 5.9 4.9 5.0 5.7 6.0 3.0 5.3 5.4 5.5 6.1 6.0 6.4 6.4 6.7 6.8 7.2 nan nan
6.2 6.1 6.7 6.3 7.5 nan nan nan 2.9 4.5 4.7 4.8 4.0 4.2 4.2 5.4 6.9 7.8 7.2 6.3 6.2 6.7 7.1 6.5 7.0 7.7 6.1 5.3 5.8 6.1 5.5 5.6 5.6 5.6 5.6 5.9 6.0 6.3 6.5 6.8 7.2 7.7 7.5 5.4
6.8 nan nan nan nan nan nan nan 6.7 6.0 5.7 6.0 6.3 6.8 6.9 7.2 7.7 8.3 8.5 8.6 7.3 8.4 9.4 6.4 8.0 8.7 7.1 5.7 5.3 5.4 6.0 3.5 5.2 6.2 6.5 6.8 6.8 6.8 6.9 6.9 7.2 7.5 7.7 8.0
0.0 7.1 10.0 7.5 6.0 5.7 6.6 6.3 6.6 6.8 7.0 7.2 7.6 7.2 7.3 7.7 8.4 10.0 9.9 9.3 7.3 7.3 8.0 8.2 8.6 7.6 7.4 7.0 6.5 6.0 6.6 6.3 3.0 6.1 6.4 6.5 6.3 6.3 6.5 6.7 7.0 7.3 7.3 6.7
0.0 5.5 5.3 5.3 5.8 6.0 6.5 6.2 6.5 6.8 8.0 8.0 7.0 6.3 6.7 6.9 8.7 9.0 9.1 8.6 7.9 8.4 9.1 9.1 8.9 8.8 8.7 8.6 8.3 6.5 6.3 6.3 6.1 5.9 6.0 6.0 6.1 5.8 6.1 6.3 6.4 6.9 6.8 5.7
4.7 5.3 5.5 5.7 5.6 6.3 6.5 7.1 8.0 7.1 6.6 6.9 6.6 7.5 7.6 7.6 8.8 9.3 9.2 8.1 8.2 10.2 10.4 9.5 3.0 6.5 9.7 8.5 4.7 6.3 5.9 5.1 5.6 6.3 5.9 3.2 5.8 6.0 6.7 6.4 6.7 6.4 6.9 7.0
6.2 5.9 6.2 6.7 6.4 6.7 8.2 6.8 6.6 7.7 8.1 7.8 7.2 7.3 8.6 8.3 8.1 7.8 8.3 9.5 10.3 9.7 9.9 9.9 9.7 9.9 9.9 5.9 3.3 6.0 5.0 4.8 5.0 5.3 5.5 6.3 6.4 6.5 6.5 3.2 6.5 6.6 6.2 6.4
7.3 6.7 6.8 6.8 7.2 6.8 6.7 6.9 6.9 7.4 8.2 7.6 7.3 7.5 7.8 8.3 7.5 6.9 7.7 7.9 11.3 9.7 9.1 3.6 8.1 7.4 6.9 5.9 4.6 5.0 5.2 5.2 5.4 5.8 5.6 5.7 5.9 6.4 6.3 6.0 5.9 5.9 6.1 6.2
7.8 7.8 7.6 7.8 7.5 8.3 7.8 7.9 8.0 7.8 8.0 7.4 7.2 7.1 7.2 8.8 7.7 7.6 7.0 7.9 8.8 3.0 6.1 6.4 7.2 3.2 3.6 3.1 5.3 5.1 5.4 5.2 5.4 5.4 5.5 5.5 6.0 6.3 6.4 6.4 6.5 6.2 6.0 5.9
8.0 8.1 8.3 8.1 8.3 9.3 8.5 8.2 7.4 7.2 7.4 7.3 6.9 7.2 7.3 7.3 6.6 6.5 6.9 9.1 6.3 3.5 5.8 5.7 3.2 3.0 3.0 4.9 4.9 5.1 5.4 5.5 5.6 5.7 5.8 6.0 6.3 6.6 7.3 7.2 6.9 6.8 6.4 6.5
8.5 8.6 8.7 8.2 8.2 8.8 9.2 9.5 9.2 8.3 7.0 6.8 6.2 6.0 6.3 6.0 5.5 5.7 5.7 3.0 3.1 4.4 4.9 4.8 4.0 3.0 3.0 4.9 5.3 5.8 5.9 6.0 6.4 6.6 6.9 3.3 6.5 7.3 7.9 7.9 8.4 7.1 7.2 7.1
8.8 8.8 8.6 8.5 8.8 7.0 7.4 7.0 6.6 6.4 6.2 6.2 6.7 6.4 6.3 5.1 5.7 6.1 5.2 5.0 3.2 4.3 5.3 3.4 3.0 3.0 5.3 5.5 6.3 6.5 6.6 6.8 7.0 6.9 7.2 6.8 6.8 6.7 7.2 8.0 8.2 7.8 8.1 7.8
7.5 6.9 7.1 7.7 6.5 5.8 5.6 5.4 6.0 6.3 6.0 6.5 6.4 5.9 5.6 5.2 5.4 5.8 5.4 3.8 5.7 3.3 5.8 5.7 5.6 5.5 5.6 6.4 6.4 6.5 6.9 7.2 7.1 7.9 7.7 7.8 7.7 8.1 8.3 8.3 8.1 7.6 7.5 7.3
6.3 4.9 5.8 6.2 6.8 6.8 6.2 6.1 6.8 6.7 5.5 6.9 7.1 6.2 6.3 6.5 6.4 4.9 3.6 5.9 5.9 6.1 6.1 5.9 6.0 4.2 6.2 6.0 6.5 6.8 6.8 7.1 3.9 8.0 8.1 8.0 8.2 7.8 8.0 7.7 7.6 7.2 7.8 8.2